[[{"header":{"parameterUnit":"m.s-1","parameterCategory":1,"la1":30.2991,"la2":30.254,"lo1":-89.0895,"lo2":-89.0444,"dy":0.0017,"dx":0.0017,"nx":28,"ny":28,"refTime":"2024-06-06T21:00:00:Z","depth":0,"parameterNumber":2,"parameterNumberName":"U-component_of_WINDS"},"data":[0,0,0,0,0,0,0,0,0,0,0,0,0,0,0,0,0,0,0,0,0,0,0,0,0,0,0,0,0,0,0,0,0,0,0,0,0,0,0,0,0,0,0,0,0,0,0,0,0,0,0,0,0,0,0,0,0,0,0.3926,0.3927,0,0.396,0.396,0.396,0.3976,0.3976,0.3976,0.3976,0.4012,0.4013,0.4013,0,0,0,0,0,0,0,0,0,0,0,0,0,0.3877,0.3878,0.3926,0.3927,0.3927,0.3959,0.396,0.396,0.3976,0.3976,0.3976,0.3976,0.4011,0.4012,0.4014,0,0,0,0,0,0,0,0,0,0,0,0,0,0.3903,0.3878,0.3926,0.3939,0.394,0.3959,0.396,0.3961,0.3976,0.3976,0.3976,0.3976,0.4011,0.4012,0.4014,0.4024,0,0,0.4018,0.4019,0,0,0,0,0,0,0,0,0.3902,0.3905,0.3937,0.3938,0.394,0.3963,0.3956,0.3982,0.3976,0.3962,0.3976,0.3976,0.3996,0.3998,0.4005,0.4025,0.4027,0.4018,0.4019,0.402,0.402,0,0,0,0,0,0,0,0.39,0.3904,0.394,0.3937,0.3939,0.3943,0.3947,0.3961,0.3979,0.3964,0.3965,0.3968,0.3997,0.4003,0.4006,0.4027,0.4018,0.402,0.4021,0.4021,0.4056,0.4056,0,0,0,0,0,0,0.3896,0.3902,0.3939,0.3941,0.392,0.3944,0.3948,0.3956,0.3979,0.3982,0.3968,0.3969,0.4001,0.4004,0.4007,0.4019,0.402,0.4021,0.4022,0.4056,0.4056,0.4056,0,0,0,0,0,0,0.3895,0.3899,0.3937,0.3922,0.3927,0.3945,0.3954,0.3957,0.3963,0.3982,0.3986,0.3972,0.4001,0.4005,0.4019,0.4021,0.4022,0.4023,0.4056,0.4056,0.4056,0.4044,0,0,0,0,0,0,0.3893,0.3899,0.3902,0.3922,0.3928,0.3948,0.3954,0.3957,0.3966,0.3967,0.3987,0.399,0.4001,0.4017,0.402,0.4023,0.4024,0.4056,0.4056,0.4056,0.4044,0.4044,0.4043,0,0,0,0,0,0.3892,0.3898,0.3903,0.3907,0.3933,0.3948,0.3952,0.3964,0.3966,0.397,0.3982,0.3989,0.402,0.4018,0.4022,0.4025,0.4056,0.4056,0.4056,0.4045,0.4044,0.4043,0,0,0,0,0,0,0.388,0.3901,0.3906,0.3919,0.3932,0.3951,0.3956,0.3963,0.3976,0.3976,0.3992,0.3996,0.4008,0.4018,0.4016,0.4035,0.4039,0.404,0.4028,0.4028,0.4027,0.4024,0.4026,0,0,0,0,0,0.3879,0.3889,0.3908,0.3917,0.3923,0.3939,0.3946,0.3954,0.3968,0.3974,0.3987,0.4,0.4013,0.4021,0.4034,0.4046,0.405,0.405,0.4049,0.4049,0.4049,0.4055,0.4055,0.4057,0.4057,0.4057,0,0,0.3877,0.389,0.3896,0.3915,0.3926,0.3936,0.3943,0.3954,0.3962,0.3976,0.3989,0.3999,0.4015,0.4028,0.4034,0.4036,0.405,0.4049,0.4048,0.4049,0.4056,0.4055,0.4055,0.4057,0.4057,0.4057,0,0,0.3879,0.389,0.3898,0.3908,0.3924,0.3934,0.3936,0.3954,0.3961,0.3974,0.3984,0.3994,0.4015,0.4026,0.4034,0.4038,0.4045,0.4042,0.4039,0.4044,0.4044,0.4044,0.4045,0.4045,0.4042,0.4042,0.4042,0,0.3874,0.389,0.3902,0.3912,0.392,0.3932,0.3941,0.395,0.3969,0.3975,0.3977,0.4003,0.4015,0.4029,0.403,0.4037,0.4039,0.404,0.4043,0.4043,0.4044,0.4044,0.4045,0.4042,0.4042,0.4042,0.4042,0,0.3884,0.3895,0.39,0.3917,0.3925,0.3935,0.3948,0.3956,0.3963,0.3972,0.3986,0.4,0.4015,0.4019,0.4027,0.4035,0.4036,0.404,0.4044,0.4043,0.4044,0.4044,0.4041,0.4041,0.4041,0.4042,0,0,0.388,0.3902,0.3904,0.3911,0.3928,0.3937,0.3947,0.3961,0.3966,0.3979,0.3987,0.4005,0.4008,0.4018,0.4027,0.4032,0.4033,0.4036,0.4036,0.4034,0.4041,0.4037,0.4038,0.4037,0.4037,0.4038,0.404,0,0.3884,0.3901,0.3911,0.3924,0.3934,0.3944,0.3953,0.3964,0.3973,0.3983,0.3993,0.4004,0.4009,0.4015,0.402,0.4031,0.4034,0.4031,0.4045,0.4046,0.404,0.4038,0.4035,0.4036,0.404,0.404,0.404,0,0.3891,0.3901,0.3915,0.393,0.3934,0.3942,0.3954,0.3964,0.3977,0.3983,0.3992,0.4001,0.4011,0.4014,0.4028,0.4026,0.4032,0.4038,0.4039,0.404,0.4043,0.404,0.4037,0.4037,0.4041,0.4041,0.4041,0,0.3885,0.3904,0.3914,0.392,0.3938,0.3942,0.395,0.3963,0.397,0.3982,0.3986,0.3999,0.4006,0.4016,0.4027,0.4028,0.404,0.4044,0.4046,0.4045,0.4048,0.4047,0.4046,0.4052,0.4052,0.4052,0.4052,0,0.3888,0.3896,0.3912,0.3918,0.3927,0.3938,0.3947,0.3956,0.3967,0.3975,0.3985,0.3992,0.4007,0.4016,0.4026,0.4036,0.4039,0.4044,0.4046,0.4043,0.4042,0.4047,0.4047,0.4052,0.4052,0.4052,0.4052,0,0.3884,0.3895,0.3907,0.3922,0.3926,0.3932,0.3945,0.3951,0.396,0.397,0.3973,0.3988,0.3999,0.4011,0.4027,0.4033,0.4042,0.4046,0.4038,0.4039,0.4039,0.4039,0.4041,0.4041,0.4048,0.4048,0.4047,0,0.3885,0.3891,0.3907,0.3912,0.3919,0.3929,0.3936,0.3947,0.3954,0.3968,0.3973,0.3985,0.3995,0.4012,0.4024,0.4036,0.404,0.4039,0.4042,0.4037,0.4039,0.4038,0.4039,0.4039,0.4039,0.4038,0.4038,0,0.3886,0.389,0.39,0.391,0.3918,0.3927,0.3937,0.3941,0.3955,0.3962,0.3973,0.398,0.3996,0.4007,0.402,0.4028,0.4035,0.4037,0.4038,0.4035,0.4029,0.4032,0.4035,0.4037,0.4038,0.4038,0.4038,0.4038,0.3884,0.3889,0.39,0.391,0.3918,0.3927,0.3933,0.3942,0.3951,0.3964,0.397,0.3981,0.3993,0.4011,0.4019,0.4027,0.403,0.4031,0.4031,0.4032,0.403,0.4028,0.403,0.403,0.403,0.403,0.403,0,0.3884,0.3891,0.39,0.3913,0.392,0.3925,0.3936,0.3942,0.3951,0.3961,0.397,0.3982,0.3993,0.4005,0.4017,0.4021,0.4024,0.4024,0.4023,0.4025,0.4028,0.4026,0.4021,0.4021,0.4021,0.4021,0.4021,0.4021,0.3885,0.3894,0.39,0.3912,0.392,0.393,0.3935,0.3943,0.3951,0.3964,0.3972,0.398,0.399,0.4003,0.4012,0.4016,0.4019,0.4017,0.4022,0.4024,0.4025,0.4026,0.4024,0.4018,0.4018,0.4018,0.4018,0.4018]},{"header":{"parameterUnit":"m.s-1","parameterCategory":1,"la1":30.2991,"la2":30.254,"lo1":-89.0895,"lo2":-89.0444,"dy":0.0017,"dx":0.0017,"nx":28,"ny":28,"refTime":"2024-06-06T21:00:00:Z","depth":0,"parameterNumber":3,"parameterNumberName":"V-component_of_WINDS"},"data":[0,0,0,0,0,0,0,0,0,0,0,0,0,0,0,0,0,0,0,0,0,0,0,0,0,0,0,0,0,0,0,0,0,0,0,0,0,0,0,0,0,0,0,0,0,0,0,0,0,0,0,0,0,0,0,0,0,0,1.5447,1.5447,0,1.5411,1.5411,1.541,1.5398,1.5398,1.5398,1.5398,1.5357,1.5356,1.5355,0,0,0,0,0,0,0,0,0,0,0,0,0,1.5502,1.5501,1.5447,1.5447,1.5447,1.5411,1.5411,1.541,1.5398,1.5398,1.5398,1.5398,1.5357,1.5356,1.5354,0,0,0,0,0,0,0,0,0,0,0,0,0,1.5473,1.5501,1.5447,1.5436,1.5435,1.5411,1.5411,1.541,1.5398,1.5398,1.5398,1.5398,1.5358,1.5356,1.5354,1.5338,0,0,1.5348,1.5348,0,0,0,0,0,0,0,0,1.5475,1.5471,1.5438,1.5437,1.5435,1.5409,1.5415,1.5386,1.5398,1.5412,1.5398,1.5399,1.5374,1.5371,1.5363,1.5336,1.5334,1.5348,1.5347,1.5346,1.5346,0,0,0,0,0,0,0,1.5477,1.5473,1.5433,1.5438,1.5436,1.5432,1.5428,1.5409,1.5392,1.5411,1.541,1.5406,1.5373,1.5365,1.5362,1.5333,1.5348,1.5347,1.5346,1.5345,1.5289,1.5289,0,0,0,0,0,0,1.5481,1.5474,1.5434,1.5432,1.5456,1.543,1.5426,1.5417,1.5392,1.5388,1.5405,1.5405,1.5368,1.5364,1.5361,1.5339,1.5346,1.5345,1.5344,1.529,1.5289,1.5289,0,0,0,0,0,0,1.5483,1.5478,1.5435,1.5453,1.5447,1.5429,1.5419,1.5417,1.5409,1.5388,1.5385,1.5401,1.5368,1.5363,1.5344,1.5337,1.5344,1.5342,1.529,1.5289,1.5289,1.5296,0,0,0,0,0,0,1.5484,1.5478,1.5473,1.5453,1.5446,1.542,1.5419,1.5416,1.5406,1.5405,1.5383,1.5379,1.5368,1.5346,1.5342,1.5335,1.5341,1.529,1.529,1.5289,1.5296,1.5296,1.5295,0,0,0,0,0,1.5486,1.5476,1.5473,1.5468,1.5439,1.542,1.5416,1.5405,1.5405,1.5399,1.5386,1.538,1.5339,1.5345,1.5339,1.5332,1.5291,1.529,1.5289,1.5296,1.5296,1.5295,0,0,0,0,0,0,1.5494,1.5473,1.5469,1.5453,1.5438,1.5418,1.541,1.5404,1.5389,1.5389,1.5374,1.5369,1.535,1.5339,1.5345,1.5314,1.5314,1.5313,1.5322,1.5321,1.5321,1.5323,1.5339,0,0,0,0,0,1.5495,1.5482,1.5463,1.545,1.5443,1.5428,1.5419,1.5411,1.5395,1.5389,1.5374,1.5358,1.5341,1.5331,1.5314,1.5295,1.5289,1.5287,1.5286,1.5286,1.5284,1.5272,1.527,1.5286,1.5286,1.5286,0,0,1.5494,1.5481,1.5474,1.5451,1.544,1.5425,1.5423,1.5408,1.5397,1.5386,1.5367,1.5356,1.5336,1.5316,1.5307,1.5306,1.5279,1.5285,1.5285,1.5283,1.5271,1.5269,1.5268,1.5286,1.5286,1.5286,0,0,1.5486,1.5475,1.5463,1.5451,1.5433,1.5423,1.542,1.5401,1.5393,1.5374,1.5365,1.5351,1.5323,1.5309,1.5298,1.5285,1.5278,1.528,1.5277,1.5265,1.5264,1.5263,1.5257,1.5255,1.5278,1.5278,1.5278,0,1.5487,1.5467,1.5457,1.5442,1.5432,1.5423,1.5409,1.5398,1.5375,1.5368,1.5368,1.5332,1.5319,1.5295,1.5292,1.5284,1.5278,1.5282,1.5265,1.5264,1.5262,1.5256,1.5254,1.5278,1.5278,1.5278,1.5278,0,1.5469,1.5455,1.5447,1.5426,1.5415,1.5401,1.5387,1.5377,1.537,1.5359,1.5339,1.5322,1.5302,1.5296,1.5289,1.527,1.5271,1.5268,1.5269,1.5261,1.5255,1.5253,1.5279,1.5279,1.5279,1.5278,0,0,1.5465,1.5439,1.5436,1.5426,1.5406,1.5394,1.5379,1.5361,1.5351,1.5336,1.5322,1.5298,1.5296,1.5284,1.5275,1.5265,1.5253,1.5263,1.5262,1.5261,1.5231,1.5232,1.523,1.5249,1.5249,1.5248,1.5232,0,1.5454,1.5428,1.5418,1.5396,1.5382,1.5373,1.536,1.5345,1.5334,1.532,1.5307,1.529,1.5289,1.5282,1.5271,1.5257,1.5247,1.5258,1.5234,1.5233,1.5239,1.5227,1.5228,1.5213,1.523,1.5229,1.5229,0,1.5437,1.5423,1.54,1.5381,1.5374,1.5363,1.5344,1.5331,1.5314,1.5306,1.5293,1.5284,1.5267,1.5269,1.5243,1.5251,1.524,1.5232,1.5231,1.5228,1.523,1.5222,1.5209,1.5206,1.5225,1.5226,1.5226,0,1.5435,1.541,1.5393,1.5385,1.5362,1.5354,1.5344,1.5327,1.5316,1.5299,1.5292,1.5273,1.5262,1.5247,1.5233,1.5236,1.5208,1.5209,1.52,1.5201,1.5194,1.5195,1.5178,1.5189,1.5189,1.5189,1.5189,0,1.5423,1.5409,1.5392,1.5381,1.5365,1.5353,1.5336,1.5325,1.531,1.5296,1.5287,1.5273,1.5256,1.524,1.5229,1.5209,1.5204,1.5197,1.5194,1.5197,1.5198,1.5189,1.5189,1.5189,1.5189,1.5189,1.5189,0,1.5418,1.5406,1.5387,1.5367,1.5362,1.535,1.5333,1.5321,1.531,1.5292,1.5287,1.527,1.525,1.5235,1.5209,1.5202,1.518,1.5177,1.5186,1.5184,1.5176,1.5176,1.5152,1.5148,1.5163,1.5163,1.5163,0,1.5411,1.54,1.538,1.537,1.5361,1.5345,1.5334,1.5321,1.531,1.5289,1.5279,1.526,1.5243,1.5212,1.5196,1.5176,1.5172,1.5165,1.5169,1.5172,1.517,1.5171,1.5169,1.5164,1.5164,1.5164,1.5164,0,1.5399,1.5394,1.5379,1.5362,1.5349,1.5335,1.532,1.5312,1.5296,1.5284,1.5264,1.5252,1.5226,1.5205,1.5184,1.5172,1.5164,1.5163,1.5159,1.5162,1.5167,1.5163,1.5184,1.5163,1.5163,1.5163,1.5163,1.5163,1.5392,1.5382,1.5366,1.5349,1.5337,1.5323,1.5311,1.5299,1.5283,1.5262,1.5254,1.5234,1.5215,1.5186,1.5173,1.5156,1.5156,1.5151,1.515,1.5148,1.5148,1.5171,1.5152,1.5152,1.5152,1.5152,1.5152,0,1.5379,1.5368,1.5353,1.5333,1.532,1.5316,1.5299,1.5287,1.527,1.5254,1.5238,1.5215,1.5195,1.5177,1.5156,1.5146,1.5142,1.514,1.514,1.5137,1.515,1.5155,1.5144,1.5144,1.5144,1.5144,1.5144,1.5144,1.537,1.5352,1.5345,1.532,1.5308,1.529,1.528,1.5267,1.5254,1.5229,1.5213,1.5202,1.5184,1.5162,1.5143,1.5138,1.513,1.5129,1.5123,1.5136,1.5137,1.5138,1.5142,1.5128,1.5128,1.5112,1.5112,1.5111]}]]